岩本彗星

C/2020 A2 ( Iwamoto )

English version
Home page
Updated on August 15, 2020

---------------------------------------------------------------------

・ プロフィール

発見日 2020年1月8日、13日
発見光度 12.8等、14.5等
発見者 Masayuki Iwamoto (Awa, Tokushima-ken, Japan), Gennady Borisov (MARGO observatory near Nauchnij, Crimea)

・ 写真集

・ 軌道要素

Epoch 2019 Dec. 23.0 TT = JDT 2458840.5
T 2020 Jan. 8.32038 TT                                  Rudenko
q   0.9780100            (2000.0)            P               Q
z  +0.0009216      Peri.   68.20856     -0.35080778     -0.44394477
 +/-0.0000256      Node   286.37907     -0.76702751     +0.64133385
e   0.9990986      Incl.  120.75010     +0.53721756     +0.62578265
From 434 observations 2020 Jan. 10-Apr. 22, mean residual 0".6.

・ 星図

・ 光度変化

        m1 = 10.6 + 5 logΔ + 25.0 log r(t - 25)  [  ,40]  (              〜2020年 2月17日)
        m1 =  9.2 + 5 logΔ + 20.0 log r          [40,  ]  (2020年 2月17日〜              )

---------------------------------------------------------------------

軌道要素はM.P.E.C. 2020-H235に掲載されたものです。
星図はステラナビゲータ Ver.10 (アストロアーツ) で作成したものです。
光度グラフはComet for Windowsで作成したものです。

---------------------------------------------------------------------

Copyright(C) Seiichi Yoshida (comet@aerith.net). All rights reserved.